User: anonymous   Login
Location: Unspecified
(0.0000°N, 0.0000°E)
Time: 18:54:34
(UTC+00:00)
Language:

HODOYOSHI 4 - Orbit

View from above orbital plane
View from above orbital plane
View from above satellite
View from above satellite

Ground track
Ground track

The orbit data is extracted from the following two-line orbital elements,

1 40011U 14033B   17145.92510231 +.00000156 +00000-0 +26966-4 0  9993
2 40011 097.8888 044.5318 0026953 346.5228 013.5265 14.80867097158462
Epoch (UTC): 25 May 2017 22:12:08
Eccentricity: 0.0026953
inclination: 97.8888°
perigee height: 608 km
apogee height: 645 km
right ascension of ascending node: 44.5318°
argument of perigee: 346.5228°
revolutions per day: 14.80867097
mean anomaly at epoch: 13.5265°
orbit number at epoch: 15846

The dashed part of the orbit path shows where the satellite is in the earth's shadow,  

DLR